Location: ??????????
(54.7560°N, 39.1389°E)
Time: 17:26:00
(UTC+00:00)

Daily predictions for brighter satellites

Satellite Brightness Start Highest point End
(mag) Time Altitude Azimuth Time Altitude Azimuth Time Altitude Azimuth
Cosmos 2154 Rocket 4.4 18:05:48 10° NNW 18:11:58 67° W 18:18:06 10° S
Nadezhda 1 Rocket 4.0 18:07:18 10° S 18:13:23 74° E 18:19:34 10° NNE
Cosmos 1814 Rocket 4.0 18:08:50 10° SSW 18:13:58 76° ESE 18:19:10 10° NNE
Cosmos 1867 3.7 18:08:34 10° NW 18:14:05 85° SW 18:19:32 10° SE
SPOT 5 4.1 18:10:18 10° SSW 18:14:16 35° W 18:18:16 10° NNW
Cosmos 2341 Rocket 4.2 18:08:11 10° N 18:14:25 59° ENE 18:20:32 10° SSE
Lacrosse 5 rocket 1.8 18:11:32 10° WNW 18:14:53 38° SW 18:18:08 10° SE
Cosmos-2242 3.2 18:17:09 10° S 18:21:19 55° E 18:25:30 10° NNE
Cosmos 2082 Rocket 3.9 18:19:42 10° SE 18:22:31 14° E 18:25:20 10° ENE
SeaSat 1 2.9 18:18:08 10° SE 18:22:54 54° NE 18:27:41 10° NNW
Cosmos 1536 4.2 18:21:07 10° N 18:24:18 24° ENE 18:27:25 10° ESE
Iridium 4 Rocket 4.0 18:19:51 10° N 18:24:49 65° W 18:30:11 10° S
Okean O Rocket 3.0 18:23:19 10° SSW 18:27:21 36° W 18:31:23 10° NNW
SPOT 3 Rocket 3.6 18:23:13 10° SSE 18:28:21 76° ENE 18:33:30 10° NNW
Cosmos 2221 3.9 18:25:11 10° SE 18:28:26 22° E 18:31:41 10° NE
Cosmos 1933 3.5 18:25:48 10° SSW 18:29:39 72° WNW 18:33:32 10° N
NOSS 2-3 (C) 4.2 18:27:06 10° WSW 18:30:39 53° NNW 18:34:53 10° NE
ERS-1 Rocket 3.8 18:27:29 10° S 18:32:19 48° W 18:37:12 10° NNW
Okean-O 3.7 18:28:33 10° S 18:32:43 43° W 18:36:56 10° NNW
NOSS 3-1 (C) 3.6 18:33:30 10° S 18:37:57 37° ESE 18:43:15 10° ENE
Cosmos 1743 4.1 18:39:51 10° NNW 18:42:54 30° W 18:45:56 10° SSW
Spot 2 Rocket 4.0 18:38:53 10° S 18:43:50 60° WSW 18:48:50 10° NNW
Cosmos 2333 Rocket 4.0 18:39:28 10° NNW 18:44:16 26° NNE 18:49:01 10° E
ISS -3.0 18:44:29 10° W 18:47:36 36° SSW 18:50:24 12° SE
Cosmos 2084 Rocket 4.3 18:44:01 10° S 18:47:39 28° SE 18:51:16 10° ENE
Lacrosse 4 Rocket 3.7 18:44:21 10° W 18:47:52 29° NW 18:51:26 10° NNE
ARIANE 6 FM1 Upper Stage 2.5 18:45:15 10° SW 18:49:13 63° SE 18:53:14 10° ENE
IKONOS-2 4.5 18:45:21 10° NNE 18:49:30 87° WNW 18:53:37 10° SSW
Cosmos 1833 Rocket 2.7 18:44:22 10° SSW 18:49:58 68° ESE 18:55:36 10° NE
Cosmos 1821 Rocket 4.2 18:44:00 10° N 18:50:05 59° ENE 18:55:50 11° SSE
Cosmos 2218 Rocket 4.1 18:48:19 10° N 18:54:45 87° E 19:01:04 10° S
Cosmos 1356 Rocket 3.5 18:53:39 10° S 18:57:41 59° E 19:01:44 10° NNE
Cosmos 1733 3.9 18:57:30 10° NNW 19:00:25 37° W 19:03:18 10° SSW
Cosmos 2219 Rocket 4.3 18:56:14 10° NNW 19:00:30 21° NNE 19:04:43 10° ENE
Cosmos 158 Rocket 4.2 18:55:32 10° SSW 19:00:52 83° WNW 19:06:18 10° NNE
NOSS 3-1 (A) 3.9 19:03:29 10° S 19:07:39 29° ESE 19:12:32 10° ENE
USA 234 3.3 19:01:37 10° ENE 19:08:06 61° SSE 19:14:34 10° SW
Cosmos 2058 Rocket 4.4 19:04:06 10° SW 19:08:22 42° WNW 19:12:37 10° N
Cosmos 1980 Rocket 2.3 19:05:14 10° NW 19:10:51 75° WSW 19:15:43 14° SSE
Cosmos 1805 3.0 19:10:58 10° N 19:14:26 68° ENE 19:17:00 17° SSE
Cosmos 1812 Rocket 3.5 19:12:11 10° S 19:16:28 80° ESE 19:20:49 10° NNE
Terra 3.8 19:14:10 10° SW 19:17:54 23° W 19:21:40 10° NW
SWARM A 4.4 19:15:00 11° S 19:18:13 76° W 19:21:38 10° N
Cosmos 2181 Rocket 4.0 19:14:23 10° S 19:20:40 77° E 19:27:04 10° NNE
Cosmos 2208 Rocket 4.0 19:16:28 10° SSW 19:21:48 70° ESE 19:27:07 10° NNE
SL-16 R/B 3.0 19:16:26 10° NNW 19:21:56 47° NE 19:27:23 10° ESE
ATLAS CENTAUR R/B 1.4 19:20:05 10° SW 19:23:49 70° NW 19:27:41 10° NE
Meteor 1-11 Rocket 3.9 19:18:29 10° N 19:24:00 64° ENE 19:28:28 16° SSE
Cosmos 1315 Rocket 2.7 19:20:18 11° S 19:24:00 76° ESE 19:27:54 10° NNE
SL-24 R/B 4.1 19:22:06 10° NNE 19:26:25 79° ESE 19:30:51 10° SSW
Cosmos 2344 4.2 19:19:24 10° WSW 19:26:35 59° NNW 19:34:17 10° NE
DELTA 2 DEB (DPAF) 3.9 19:26:23 10° NNE 19:30:18 59° ESE 19:33:24 15° S
Cosmos 2322 Rocket 3.4 19:25:33 10° NNW 19:30:51 38° NE 19:36:05 10° ESE
Cosmos 2237 4.4 19:25:33 10° NNW 19:31:16 68° NE 19:36:07 14° SE
BlueWalker 3 3.7 19:32:29 10° W 19:34:55 17° SW 19:36:16 14° SSW
Meteor 1-14 Rocket 4.5 19:30:49 10° NNW 19:36:22 68° W 19:41:17 14° S
Genesis I 3.0 19:34:23 10° NW 19:37:06 49° NE 19:39:01 17° ESE
Cosmos 1975 3.5 19:35:09 10° N 19:38:38 38° ENE 19:40:57 18° SE
Ariane Rocket 4.3 19:37:27 10° SSW 19:42:01 33° W 19:46:37 10° NNW
Nadezhda 3 Rocket 4.1 19:37:18 15° S 19:42:24 61° E 19:48:33 10° NNE
Cosmos 1697 Rocket 4.3 19:37:58 10° NW 19:42:33 26° WSW 19:47:07 10° SSW
CZ-4C R/B 3.5 19:39:48 10° NNE 19:43:21 45° E 19:45:23 21° SSE
CENTAUR R/B 3.6 19:37:12 10° NW 19:44:44 63° NNE 19:53:41 10° ESE
Cosmos 1934 Rocket 4.2 19:39:57 10° N 19:46:09 63° ENE 19:51:02 17° SSE
ATLAS 3B R/B 3.8 19:42:57 16° SSE 19:47:30 29° ESE 19:53:54 10° ENE
Cosmos 2278 4.0 19:42:32 10° NNW 19:48:11 64° NE 19:52:56 15° SE
Cosmos 1570 Rocket 4.5 19:43:14 10° SW 19:48:27 63° WNW 19:53:44 10° NNE
ARIANE 5 R/B 2.8 19:46:27 19° SE 19:49:28 60° ENE 19:53:48 10° N
Cosmos 1238 Rocket 3.0 19:46:06 11° SSW 19:49:33 53° WNW 19:52:44 10° N
Cosmos 2360 Rocket 3.2 19:45:18 10° NNW 19:50:39 42° NE 19:55:58 10° ESE
Cosmos 1842 Rocket 4.1 19:48:46 20° SSE 19:51:20 41° E 19:55:24 10° NNE
Meteor 2-6 Rocket 4.5 19:48:43 10° SSW 19:54:34 73° WNW 20:00:17 10° NNE
Cosmos 2369 4.0 19:49:58 10° NW 19:55:32 57° WSW 19:59:34 18° S
Cosmos 1766 3.3 19:52:36 10° N 19:56:01 52° ENE 19:57:53 23° SE
Cosmos 1470 3.9 19:54:15 10° N 19:57:25 29° ENE 19:59:30 17° ESE
Cosmos 1908 3.8 19:55:53 10° N 19:58:58 36° ENE 20:00:37 21° SE
Cosmos 1536 3.7 19:56:23 10° NNW 19:59:59 40° W 20:02:41 16° SSW
SeaSat 1 3.5 19:57:02 16° S 20:00:29 35° WSW 20:05:00 10° NW
CZ-2C R/B 4.0 19:58:48 10° NNE 20:03:05 47° E 20:05:39 22° SSE
Cosmos 2221 3.2 20:01:13 10° SSW 20:05:17 49° WNW 20:09:21 10° N
Cosmos 2082 Rocket 2.2 20:00:20 12° SSW 20:05:32 67° ESE 20:11:08 10° NE
Cosmos 405 Rocket 2.4 20:03:06 10° NNW 20:06:33 76° W 20:08:21 26° S
Timation 1 Rocket 4.5 20:04:14 15° S 20:09:06 56° ESE 20:14:59 10° NE
Okean 1 4.4 20:08:20 10° SW 20:11:47 37° WNW 20:15:14 10° N
KORONAS-FOTON 4.5 20:14:56 24° SE 20:16:20 35° E 20:19:33 10° NNE
Meteor 1-10 Rocket 4.4 20:11:54 14° SSW 20:17:00 85° WNW 20:22:52 10° NNE
COBE Rocket 4.1 20:12:07 10° N 20:17:13 77° WNW 20:21:35 15° SSW
Cosmos 773 Rocket 4.4 20:13:00 10° SW 20:18:05 62° WNW 20:23:11 10° NNE
Okean 3 Rocket 3.6 20:14:45 10° NNW 20:19:11 81° W 20:21:53 23° S
Cosmos 1674 2.9 20:18:53 20° WSW 20:19:50 29° WNW 20:21:50 10° N
COSMOS 2406 3.3 20:17:11 17° S 20:21:27 59° ESE 20:27:04 10° NE
Landsat 5 3.8 20:17:52 10° NNE 20:21:57 53° E 20:24:14 24° SSE
NOSS 3-2 (A) 4.4 20:16:27 10° NW 20:23:02 59° NNE 20:31:09 10° ESE
ISS -1.5 20:22:00 10° WSW 20:23:18 13° SW 20:23:18 13° SW
USA 59 Rocket -0.3 20:24:32 32° SSE 20:25:09 36° SE 20:27:55 10° ENE
BREEZE-M R/B 4.2 20:16:37 10° WNW 20:25:26 30° SW 20:27:31 21° S
Cosmos 2084 Rocket 3.7 20:21:59 10° WSW 20:26:15 69° NW 20:30:28 10° NE
NOSS 3-1 (C) 3.7 20:23:13 10° WSW 20:28:18 65° NNW 20:34:42 10° NE
ARIANE 6 FM1 Upper Stage 4.1 20:24:44 10° W 20:28:34 40° NNW 20:32:27 10° NE
Cosmos 2333 Rocket 2.3 20:23:43 10° NNW 20:29:29 77° NE 20:33:55 17° SE
Cosmos 1842 3.7 20:29:20 27° SE 20:30:39 38° E 20:33:55 10° NNE
Cosmos 1833 Rocket 4.4 20:29:10 10° WSW 20:34:19 35° NW 20:39:29 10° NNE
NOSS 2-1 (E) 3.2 20:35:16 33° SSE 20:36:03 39° SE 20:38:55 10° ENE
MetOp-A 4.4 20:32:58 21° S 20:36:19 54° W 20:41:25 10° NNW
Meteor 2-13 Rocket 4.5 20:35:04 18° SSW 20:39:44 87° WNW 20:45:55 10° NNE
Cosmos 1455 4.1 20:40:55 10° NE 20:42:17 13° ENE 20:43:38 10° E
Cosmos 1300 3.3 20:40:47 10° N 20:43:45 35° ENE 20:45:10 23° ESE
ALOS 2 2.6 20:42:21 25° S 20:44:51 79° WSW 20:49:17 10° NNW
Cosmos 1151 Rocket 3.5 20:42:48 25° SSE 20:44:53 45° E 20:48:55 10° NNE
Cosmos 2219 Rocket 2.8 20:40:07 10° NNW 20:45:41 55° NE 20:51:00 11° SE
Cosmos 2333 4.4 20:41:32 10° NNW 20:47:14 70° NE 20:51:55 15° SE
USA 234 3.4 20:44:47 10° ENE 20:51:21 81° NNW 20:57:54 10° W
NOSS 2-1 (D) 2.6 20:50:18 29° SSW 20:51:41 63° SE 20:54:39 10° NE
Meteor 2-4 Rocket 3.8 20:48:50 22° S 20:52:36 76° E 20:58:28 10° NNE
Meteor 1-27 Rocket 3.9 20:48:32 17° SSW 20:52:52 70° WNW 20:58:25 10° N
Cosmos 1980 Rocket 4.2 20:50:37 10° WNW 20:53:54 16° W 20:57:12 10° SW
NOSS 3-1 (A) 3.4 20:52:42 10° WSW 20:57:47 76° NW 21:04:10 10° NE
Sich 1 3.4 20:55:31 10° NNW 20:59:40 54° W 21:01:52 25° SSW
CZ-2C R/B 4.2 20:56:03 10° ESE 21:00:23 28° ENE 21:04:44 10° N
ATLAS CENTAUR R/B 3.7 20:57:22 10° WNW 21:00:33 24° NNW 21:03:46 10° NE
Cosmos 1371 Rocket 4.3 20:55:40 10° NNW 21:01:02 66° ENE 21:05:13 17° SE
BREEZE-M DEB (TANK) 3.7 20:53:58 10° W 21:03:35 36° SW 21:05:28 25° S
Cosmos 2100 Rocket 4.5 20:57:43 10° N 21:03:57 56° ENE 21:08:46 17° SSE
SL-16 R/B 2.7 21:00:40 10° NW 21:06:04 45° WSW 21:09:15 23° S
Cosmos 2056 Rocket 3.7 21:01:23 10° NNW 21:06:45 72° ENE 21:10:41 18° SE
PSLV R/B 3.6 21:03:07 10° NNE 21:07:17 65° ESE 21:09:23 28° S
Genesis I 4.3 21:08:05 10° WNW 21:09:43 17° WSW 21:09:43 17° WSW
Cosmos 1624 Rocket 4.1 21:05:34 10° NNW 21:10:47 75° ENE 21:14:39 18° SE
NOSS 2-1 (C) 2.5 21:09:43 23° SW 21:11:34 90° SE 21:14:34 10° NE
Cosmos 1975 4.4 21:10:52 10° NW 21:13:47 23° W 21:15:35 16° SW
Cosmos 1538 Rocket 3.9 21:10:27 20° SSW 21:14:04 88° NW 21:19:16 10° NNE
Cosmos 1500 Rocket 4.1 21:10:05 10° NNW 21:14:17 47° W 21:16:34 24° SSW
Cosmos 2322 Rocket 2.3 21:09:36 10° NW 21:15:12 60° WSW 21:18:38 23° S
NOSS 3-2 (C) 4.5 21:09:51 10° NW 21:16:29 60° NNE 21:24:37 10° ESE
Exosat Rocket 4.0 21:11:44 10° NW 21:16:38 47° WSW 21:19:21 24° S
H-2A R/B 3.5 21:15:01 15° SE 21:17:55 36° ENE 21:21:29 10° N
Cosmos 1459 Rocket 4.3 21:11:52 10° N 21:17:56 62° ENE 21:22:37 18° SSE
Cosmos 1707 2.8 21:18:01 28° SW 21:19:32 55° WNW 21:22:51 10° N
COSMOS 2428 3.7 21:14:58 10° NNW 21:20:31 47° NE 21:26:02 10° ESE
Cosmos 1633 Rocket 3.3 21:16:53 10° N 21:21:13 60° ENE 21:23:51 22° SSE
Geosat FO 4.1 21:21:06 38° SSE 21:22:06 67° WSW 21:25:07 10° NW
Cosmos 44 Rocket 4.2 21:19:01 10° NW 21:23:39 48° NNE 21:28:21 10° ESE
Meteor 2-10 Rocket 3.9 21:20:09 10° NNW 21:25:54 75° ENE 21:30:03 20° SSE
ARIANE 5 R/B 4.4 21:23:51 14° SW 21:26:11 21° W 21:29:31 10° NW
Cosmos 1066 Rocket 4.2 21:23:03 23° S 21:26:43 88° ESE 21:32:32 10° NNE
Cosmos 1470 3.9 21:28:54 10° NNW 21:32:00 28° W 21:33:25 21° SW
Cosmos 2173 Rocket 4.1 21:26:12 10° N 21:32:37 80° E 21:37:12 20° SSE
Iridium 51 4.4 21:29:07 10° N 21:32:41 57° E 21:34:33 26° SSE
Cosmos 2360 Rocket 2.5 21:29:21 10° NW 21:34:48 52° WSW 21:38:03 23° S
CENTAUR R/B 3.3 21:27:51 10° NW 21:35:47 65° SW 21:44:23 12° SSE
Meteor 1-18 Rocket 4.4 21:32:07 21° SSW 21:36:05 78° WNW 21:42:01 10° NNE
GP-B 3.2 21:32:32 10° N 21:36:55 69° W 21:39:19 26° SSW
ATLAS 3B R/B 3.0 21:30:06 11° SW 21:37:24 84° SE 21:45:19 10° NE
USA 229 DEB 3.6 21:33:24 19° SSW 21:37:56 66° SE 21:44:46 10° NE
USA 229 3.6 21:33:32 19° SSW 21:38:01 65° SE 21:44:50 10° NE
ASTEX 1 3.4 21:38:45 10° N 21:43:43 77° W 21:46:45 24° SSW
GEOS 3 Rocket 3.5 21:41:12 10° SE 21:46:18 85° SW 21:51:30 10° NW
Cosmos 1758 3.5 21:43:22 10° N 21:47:11 62° ENE 21:49:25 23° SSE
CZ-2C R/B 4.4 21:42:32 10° NNE 21:47:50 35° E 21:51:58 15° SSE
Cosmos 1328 Rocket 3.6 21:46:16 26° S 21:48:34 68° E 21:52:53 10° NNE
Cosmos 2082 Rocket 3.6 21:44:54 10° WSW 21:50:01 35° NW 21:55:12 10° NNE
Cosmos 2123 Rocket 4.4 21:46:03 19° SSE 21:50:32 56° E 21:56:43 10° NNE
In-Cosmos 22 4.4 21:49:28 22° S 21:53:12 72° E 21:58:58 10° NNE
Cosmos 2112 Rocket 4.0 22:00:57 23° SSW 22:04:16 73° ESE 22:09:30 10° NNE
Cosmos 2237 Rocket 3.3 22:00:33 10° NNW 22:05:59 45° NE 22:11:23 10° ESE
COSMOS 2406 4.4 22:00:43 10° WSW 22:06:02 39° NW 22:11:24 10° NNE
NOSS 2-2 (D) 4.0 22:09:07 10° NW 22:12:37 56° NE 22:17:12 10° ESE
Cosmos 2061 Rocket 4.3 22:06:35 10° N 22:13:02 70° ENE 22:18:50 13° SSE
Cosmos 2333 Rocket 3.5 22:08:39 10° NW 22:13:15 25° WSW 22:15:54 18° SW
USA 59 Rocket 0.9 22:11:22 10° W 22:14:08 31° NNW 22:16:52 10° NE
NOSS 3-2 (A) 4.0 22:07:11 10° NW 22:14:12 64° SW 22:22:42 10° SSE
Cosmos 1455 1.9 22:12:04 10° NNW 22:14:47 44° W 22:15:31 34° SW
Cosmos 1300 4.1 22:14:37 10° NW 22:16:53 18° W 22:17:48 16° WSW
Cosmos 2322 3.7 22:15:00 10° NW 22:20:41 76° WSW 22:26:00 12° SSE
SL-14 R/B 3.2 22:18:45 26° SSW 22:20:51 88° WNW 22:24:45 10° NNE
Cosmos 1953 3.4 22:18:44 10° N 22:22:12 37° ENE 22:25:38 10° SE
NOSS 2-2 (C) 3.4 22:19:57 10° NW 22:23:37 89° SSW 22:28:37 10° SE
Cosmos 1110 Rocket 4.0 22:18:31 10° NNW 22:23:51 80° WSW 22:28:27 14° SSE
NOSS 2-1 (E) 4.4 22:22:26 10° W 22:25:15 30° NNW 22:28:02 10° NE
Cosmos 1452 Rocket 3.5 22:22:47 10° NNW 22:28:04 87° WSW 22:33:06 11° SSE
Cosmos 1437 Rocket 3.9 22:25:52 16° SSE 22:28:06 31° E 22:31:14 10° NNE
Meteor 1-13 Rocket 4.4 22:24:25 20° S 22:28:41 81° E 22:34:40 10° NNE
Cosmos 2219 Rocket 2.9 22:24:21 10° NW 22:29:27 36° WSW 22:32:39 20° SSW
Cosmos 494 Rocket 3.9 22:27:54 21° SSW 22:31:22 81° ESE 22:36:33 10° NNE
USA 234 3.5 22:27:46 10° E 22:34:17 77° N 22:40:50 10° WNW
IRIDIUM 114 4.4 22:31:47 18° S 22:35:41 80° E 22:40:56 10° N
ATLAS CENTAUR R/B 4.2 22:34:55 10° NW 22:37:47 19° N 22:40:40 10° NE
CZ-2C R/B 2.6 22:36:30 18° S 22:40:19 62° WSW 22:45:28 10° NNW
SL-16 R/B 4.1 22:36:20 10° NNW 22:41:25 33° NE 22:46:29 10° ESE
Cosmos 1048 Rocket 4.1 22:39:54 19° S 22:43:28 65° ESE 22:48:33 10° NNE
Cosmos 1680 Rocket 4.0 22:39:24 15° SW 22:43:36 55° WNW 22:48:44 10° NNE
Cosmos 2016 Rocket 4.2 22:37:46 10° NNW 22:43:48 58° W 22:48:31 17° SSW
IRIDIUM 103 4.3 22:40:55 18° S 22:44:50 88° W 22:50:06 10° N
Cosmos 1833 4.5 22:42:21 15° SW 22:47:09 67° NW 22:52:58 10° NNE
Cosmos 2297 Rocket 3.6 22:44:12 11° SSE 22:48:47 29° ESE 22:53:35 10° NE
H-2A R/B 3.4 22:50:24 20° SW 22:52:20 29° W 22:55:47 10° NW
Cosmos 1331 Rocket 4.2 22:49:54 10° NW 22:54:57 51° WSW 22:59:07 15° S
Cosmos 2322 Rocket 4.1 22:55:48 10° WNW 22:58:04 12° W 23:00:20 10° WSW
Cosmos 1302 Rocket 4.0 22:53:33 10° NNW 22:58:48 89° ENE 23:04:02 10° SSE
Aureole 3 Rocket 3.9 22:54:52 10° N 22:59:46 49° ENE 23:03:24 10° SSE
Cosmos 921 Rocket 4.3 22:57:50 11° SSE 23:01:14 31° ESE 23:04:56 10° NE
Cosmos 1933 Rocket 4.0 22:58:04 10° NNW 23:02:21 47° W 23:05:27 17° SSW
IRIDIUM 106 4.5 22:59:11 17° SSW 23:03:10 66° W 23:08:24 10° N
COSMOS 2428 3.1 22:59:22 10° NW 23:04:49 46° WSW 23:09:57 11° S
Cosmos 44 Rocket 3.6 23:00:31 10° NW 23:05:07 46° SW 23:09:46 10° SSE
NOSS 3-2 (C) 4.1 23:00:39 10° NW 23:07:42 63° SW 23:16:11 10° SSE
SL-16 R/B 4.1 23:03:15 10° ESE 23:08:46 36° NE 23:14:19 10° N
Cosmos 2292 Rocket 4.1 23:06:33 12° S 23:11:41 69° E 23:16:03 10° NNE
Cosmos 1980 3.7 23:07:27 10° NW 23:13:09 77° WSW 23:18:48 10° SSE
Cosmos 2227 Rocket 4.0 23:09:55 10° SSE 23:14:12 23° ESE 23:18:31 10° NE
Cosmos 1869 Rocket 3.9 23:10:34 10° NNW 23:14:55 52° W 23:18:29 15° SSW
IDEFIX/ARIANE 42P 2.8 23:09:41 10° NNE 23:14:56 70° ESE 23:19:43 12° S
USA 238 DEB 4.0 23:09:04 10° NW 23:16:16 88° NE 23:24:11 10° SE
USA 238 4.0 23:09:09 10° NW 23:16:23 87° NE 23:24:17 10° SE
Cosmos 2360 Rocket 4.3 23:16:59 10° W 23:17:29 10° W 23:18:00 10° W
Cosmos 1515 Rocket 4.3 23:14:53 15° SW 23:18:07 40° WNW 23:22:17 10° N
NOSS 0 Rocket 4.2 23:13:56 10° NW 23:19:57 50° WSW 23:25:54 10° S
Resurs 1-4 Rocket 3.1 23:15:41 10° NNE 23:20:39 40° E 23:25:35 10° SSE
CENTAUR R/B 4.4 23:19:21 10° WNW 23:25:31 23° WSW 23:31:23 12° SSW
CZ-2C R/B 3.7 23:22:12 10° N 23:27:50 55° WNW 23:32:58 13° SW
Okean 2 3.4 23:24:22 12° S 23:27:55 71° E 23:31:52 10° NNE
ATLAS 3B R/B 3.8 23:21:23 10° W 23:28:52 51° NNW 23:36:35 10° NE
USA 229 DEB 4.4 23:22:53 10° W 23:29:07 54° NNW 23:36:11 10° NE
USA 229 4.4 23:22:59 10° W 23:29:13 54° NNW 23:36:16 10° NE
H-2A R/B 2.1 23:25:20 10° NNE 23:29:29 73° ESE 23:33:14 12° S
Meteor 1-21 4.3 23:24:56 14° SSW 23:29:52 74° WNW 23:35:32 10° NNE
NOSS 2-2 (E) 3.7 23:30:18 10° WNW 23:33:59 49° SW 23:38:56 10° SSE
NPP 3.7 23:32:01 10° NNE 23:37:28 87° ESE 23:42:48 10° SSW
Cosmos 1733 Rocket 3.1 23:33:44 10° NNW 23:38:10 73° W 23:42:34 10° S
Cosmos 614 Rocket 4.2 23:34:34 12° SSW 23:39:27 70° ESE 23:44:38 10° NNE
Cosmos 1992 Rocket 4.0 23:34:39 10° NNW 23:39:53 80° WSW 23:45:04 10° SSE
SAR-Lupe-3 4.0 23:37:54 10° S 23:40:50 73° WSW 23:43:49 10° NNW
COSMOS 2455 2.9 23:35:58 10° NW 23:42:03 89° NE 23:48:06 10° SE
Lacrosse 4 Rocket 3.4 23:41:57 10° NNW 23:45:43 34° NE 23:49:32 10° ESE
ADEOS II 3.1 23:40:43 10° NNE 23:45:44 43° E 23:50:42 10° S
GENESIS II 3.4 23:42:56 10° NW 23:45:53 60° SW 23:48:49 10° SSE
Cosmos 1862 Rocket 3.8 23:41:32 10° S 23:45:57 72° E 23:50:24 10° NNE
Cosmos 2228 Rocket 3.4 23:42:54 10° S 23:47:26 72° E 23:51:59 10° NNE
Cosmos 1703 3.1 23:44:40 10° S 23:48:07 71° E 23:51:36 10° NNE
ARIANE 6 FM1 Upper Stage 3.8 23:44:22 10° NW 23:48:22 49° NNE 23:52:26 10° ESE
Cosmos 2237 Rocket 2.5 23:44:43 10° NW 23:50:08 48° WSW 23:55:31 10° S
ALOS 3.3 23:45:47 10° NNE 23:50:08 41° E 23:54:27 10° SSE
USA 281 3.6 23:46:26 10° NNE 23:52:58 62° ESE 23:59:27 10° SSW
CZ-2D R/B 2.5 23:48:24 10° NNE 23:53:52 67° ESE 23:59:18 10° S
